Orbital Elements at Epoch 2459200.5 (2020-Dec-17.0) TDB
Reference: JPL 19 (heliocentric ecliptic J2000)
Element | Value | Uncertainty (1-sigma) | Units |
e | .09066584104271119 | 6.5534e-08 | |
a | 2.716279828191456 | 1.7621e-08 | au |
q | 2.470006033061126 | 1.8157e-07 | au |
i | 1.592243933703479 | 5.8901e-06 | deg |
node | 128.621209918759 | 0.00019287 | deg |
peri | 30.19101430047546 | 0.00019448 | deg |
M | 304.8998690566068 | 2.4823e-05 | deg |
tp | 2459450.770879451599 (2021-Aug-24.27087945) | 0.00011313 | TDB |
period | 1635.159754795081 4.48 | 1.5912e-05 4.356e-08 | d yr |
n | .2201619743540688 | 2.1424e-09 | deg/d |
Q | 2.962553623321786 | 1.9219e-08 | au |
|
| | Orbit Determination Parameters
Additional Information
|